星链-34515 (STARLINK-34515)

导读

STARLINK-34515是美国太空探索技术公司 SpaceX 星链互联网卫星星座的一员,于2025年6月28日由美国发射升空。它主要为全球范围提供低延迟、高速率的宽带互联网服务,填补偏远地区网络覆盖空白。该卫星延续星链设计,运行在近地轨道,依托大规模星座组网,服务普通消费、商业及特殊领域网络需求,是星链全球组网布局的重要组成部分。

Basic Information
目录编号:
64712
目录名称:
STARLINK-34515
国际标识:
2025-142S
轨道中心:
EARTH
卫星名称:
星链-34515
卫星全名:
星链-34515 (STARLINK-34515)
卫星状态:
在轨 (已飞行433 天)
发射日期:
2025-06-28 UTC
国别 :
美国 (US)
星等 :
--
Orbit Information
数据来源 国际轨道数据
星历时间: 2026-09-04T14:00:02+0800
6小时前
查看轨道信息
半长轴: 6896.847km
偏心率: 0.0003305
轨道倾角: 70.004°
近地点辐角 306.214°
升交点赤经 223.957°
平近点角 81.850°
近地点: 516.43km
远地点: 520.99km
周期: 95.003分钟
每日圈数: 15.157476
Detailed Information
固有亮度:
5
最大亮度:
2.5
卫星平台:
Starlink V1.0
覆盖范围:
全球
运营商:
太空探索技术公司
运营商所在国:
美国
制造商(研发单位):
太空探索技术公司
制造商所在国:
美国
使用方式:
暂无
Satellite Introduction
Starlink 计划是 SpaceX 推出的全球卫星互联网项目,通过发射低轨道卫星,为全球尤其是偏远地区提供高速、低延迟的互联网服务。自 2019 年起,Starlink 已部署数千颗卫星,旨在缩小全球数字鸿沟,推动互联网普及。该项目还为军事、航空等行业提供通信支持,带来广泛经济效益。
2D Orbit Map
3D Orbit Map
Orbit Altitude Analysis Chart
Orbit Inclination Analysis Chart
Orbit Comprehensive Analysis Chart
View Comprehensive Chart
Conjunction Data List
Event ID Objects TCA Miss Dist (km) Collision Risk Probability Collision Risk Index (CRI) Action
CDM_260905-190206-365706-471221
2026-09-05T
19:02:39+0000
1.126 km
极远距离
1.58611E-5 中风险 0.59
CDM_260905-202805-992406-471221
2026-09-05T
20:28:07+0000
1.150 km
极远距离
1.487035E-5 中风险 0.58
CDM_260905-220205-992406-471221
2026-09-05T
22:02:19+0000
1.952 km
极远距离
2.7455E-6 低风险 0.44
CDM_260905-220706-471206-656021
2026-09-05T
22:07:50+0000
2.826 km
极远距离
1.322342E-6 低风险 0.37
CDM_260905-204206-471206-660121
2026-09-05T
20:42:51+0000
2.635 km
极远距离
1.282845E-6 低风险 0.37
CDM_260905-185906-471206-656021
2026-09-05T
18:59:25+0000
2.900 km
极远距离
1.277749E-6 低风险 0.37
CDM_260906-003206-365706-471221
2026-09-06T
00:32:20+0000
2.945 km
极远距离
1.237539E-6 低风险 0.37
CDM_260906-054104-830006-471221
2026-09-06T
05:41:26+0000
2.996 km
极远距离
1.134559E-6 低风险 0.36
CDM_260906-074106-014006-471221
2026-09-06T
07:41:36+0000
2.272 km
极远距离
8.746571E-7 极低风险 0.34
CDM_260906-052005-385906-471221
2026-09-06T
05:20:16+0000
2.628 km
极远距离
7.624365E-7 极低风险 0.33